�N����,����,�~����,�C��,���x,�C��,����,���ϕ���,�ő�u�ԕ���,�ő厞����,���˗�,�I�_���x,�n�����x,�ő啗���N��,DTYPE
"23/04/09","00:10",0.0,6.6,78.6,1011.9,317.0,2.1,2.9,322.0,0.00,3.2,12.8,"00:06:48",1
"23/04/09","00:20",0.0,6.3,80.3,1012.1,322.5,1.6,2.5,323.1,0.00,3.2,12.6,"00:15:04",1
"23/04/09","00:30",0.0,6.2,82.5,1011.9,331.0,2.1,3.4,337.1,0.00,3.5,12.7,"00:29:10",1
"23/04/09","00:40",0.0,6.0,84.4,1012.1,341.4,2.1,2.9,338.0,0.00,3.6,12.7,"00:33:58",1
"23/04/09","00:50",0.0,5.6,85.7,1012.3,332.7,1.7,3.4,338.8,0.00,3.4,12.6,"00:41:06",1
"23/04/09","01:00",0.0,5.3,86.6,1012.1,303.9,1.7,2.5,317.1,0.00,3.3,12.6,"00:50:08",1
"23/04/09","01:10",0.0,5.4,87.5,1012.1,337.1,1.7,2.4,347.3,0.00,3.5,12.5,"01:05:56",1
"23/04/09","01:20",0.0,5.5,88.2,1012.3,346.8,1.2,1.8,338.4,0.00,3.7,12.4,"01:10:50",1
"23/04/09","01:30",0.0,5.3,88.6,1012.1,313.7,1.5,2.1,338.1,0.00,3.6,12.5,"01:29:14",1
"23/04/09","01:40",0.0,5.3,88.9,1012.1,337.7,1.7,2.4,344.8,0.00,3.7,12.5,"01:33:12",1
"23/04/09","01:50",0.0,5.2,89.1,1012.3,333.1,1.8,3.1,314.6,0.00,3.6,12.3,"01:41:10",1
"23/04/09","02:00",0.0,5.3,89.1,1012.3,333.6,1.7,3.2,342.7,0.00,3.7,12.3,"01:59:48",1
"23/04/09","02:10",0.0,5.3,89.1,1012.3,330.3,1.7,3.1,332.4,0.00,3.7,12.6,"02:00:32",1
"23/04/09","02:20",0.0,5.3,89.2,1012.3,324.7,2.2,3.7,315.4,0.00,3.7,12.4,"02:13:26",1
"23/04/09","02:30",0.0,5.3,89.2,1012.6,327.0,2.2,3.3,333.2,0.00,3.7,12.4,"02:26:24",1
"23/04/09","02:40",0.0,5.2,89.3,1012.3,318.4,2.0,2.9,335.2,0.00,3.6,12.2,"02:30:40",1
"23/04/09","02:50",0.0,5.1,89.5,1012.6,320.8,2.1,3.2,309.0,0.00,3.6,12.2,"02:42:56",1
"23/04/09","03:00",0.0,4.9,89.7,1012.3,307.5,1.5,3.6,329.4,0.00,3.4,12.3,"02:50:50",1
"23/04/09","03:10",0.0,4.8,89.9,1012.3,311.0,1.5,2.0,326.2,0.00,3.3,12.3,"03:05:34",1
"23/04/09","03:20",0.0,4.8,90.1,1012.3,318.5,0.7,1.7,291.1,0.00,3.4,12.2,"03:19:00",1
"23/04/09","03:30",0.0,4.6,90.4,1012.3,323.5,1.8,2.4,333.1,0.00,3.2,11.7,"03:22:06",1
"23/04/09","03:40",0.0,4.4,90.8,1012.6,325.0,1.7,2.0,339.2,0.00,3.1,12.0,"03:39:50",1
"23/04/09","03:50",0.0,4.2,91.0,1012.3,327.9,1.6,2.0,338.4,0.00,2.9,12.0,"03:46:20",1
"23/04/09","04:00",0.0,3.9,91.3,1012.3,311.3,1.2,1.4,332.3,0.00,2.7,12.0,"03:58:36",1
"23/04/09","04:10",0.0,3.8,91.7,1012.3,307.6,0.8,1.7,301.1,0.00,2.6,11.8,"04:03:54",1
"23/04/09","04:20",0.0,3.6,91.8,1012.3,281.5,1.1,1.6,305.0,0.00,2.4,12.0,"04:12:46",1
"23/04/09","04:30",0.0,3.9,92.3,1012.1,320.2,2.2,2.7,333.9,0.00,2.8,11.7,"04:22:20",1
"23/04/09","04:40",0.0,4.0,92.5,1012.6,348.8,1.1,2.6,333.0,0.00,2.9,11.6,"04:30:10",1
"23/04/09","04:50",0.0,4.1,92.7,1012.6,239.2,0.3,0.8,261.2,0.00,3.1,11.7,"04:42:50",1
"23/04/09","05:00",0.0,3.8,93.0,1012.3,231.9,0.6,1.0,245.7,0.00,2.8,11.7,"04:56:06",1
"23/04/09","05:10",0.0,3.6,93.1,1012.3,290.5,1.0,1.7,312.3,0.00,2.6,11.7,"05:03:12",1
"23/04/09","05:20",0.0,3.5,93.4,1012.6,305.4,1.8,2.5,308.7,0.00,2.6,11.7,"05:14:04",1
"23/04/09","05:30",0.0,3.5,93.6,1012.3,303.7,1.7,2.6,317.8,0.00,2.6,11.7,"05:26:00",1
"23/04/09","05:40",0.0,3.4,93.8,1012.1,299.2,1.8,2.5,315.3,0.00,2.5,11.5,"05:36:44",1
"23/04/09","05:50",0.0,3.4,94.2,1012.6,289.5,2.0,3.3,310.0,0.00,2.6,11.5,"05:49:48",1
"23/04/09","06:00",0.0,3.5,94.3,1012.8,318.0,2.5,3.9,321.5,0.00,2.7,11.4,"05:56:08",1
"23/04/09","06:10",0.0,3.2,94.4,1013.0,297.4,1.5,2.2,323.5,0.00,2.4,11.4,"06:00:12",1
"23/04/09","06:20",0.0,3.1,94.7,1013.0,291.9,1.6,2.7,318.4,0.00,2.4,11.6,"06:18:00",1
"23/04/09","06:30",0.0,3.1,94.8,1013.0,286.1,1.0,2.0,309.6,0.00,2.4,11.5,"06:28:20",1
"23/04/09","06:40",0.0,3.0,95.1,1013.3,311.9,2.0,2.5,331.0,0.00,2.3,11.4,"06:31:42",1
"23/04/09","06:50",0.0,2.9,95.3,1013.0,283.9,1.0,1.7,312.3,0.00,2.3,11.4,"06:42:38",1
"23/04/09","07:00",0.0,3.4,95.5,1014.0,293.2,1.1,1.6,312.6,0.00,2.8,11.3,"06:51:24",1
"23/04/09","07:10",0.0,3.9,95.5,1014.5,310.9,1.2,2.5,317.1,0.01,3.3,11.2,"07:03:26",1
"23/04/09","07:20",0.0,4.5,95.6,1014.2,313.8,1.1,2.1,318.0,0.02,3.9,11.2,"07:19:04",1
"23/04/09","07:30",0.0,5.3,95.6,1014.5,277.4,1.0,2.1,317.7,0.03,4.7,11.2,"07:20:16",1
"23/04/09","07:40",0.0,6.0,95.4,1015.2,252.6,0.3,0.8,257.5,0.05,5.4,11.0,"07:30:16",1
"23/04/09","07:50",0.0,6.2,95.2,1015.2,149.9,0.3,0.8,132.4,0.07,5.5,11.1,"07:44:40",1
"23/04/09","08:00",0.0,6.7,94.8,1015.2,139.1,0.5,1.6,354.8,0.10,6.0,11.0,"07:53:28",1
"23/04/09","08:10",0.0,7.5,94.3,1015.4,243.4,0.7,1.6,319.1,0.13,6.7,11.0,"08:00:40",1
"23/04/09","08:20",0.0,8.3,93.1,1015.6,241.5,0.5,1.0,308.7,0.16,7.3,11.2,"08:15:36",1
"23/04/09","08:30",0.0,9.2,92.1,1016.1,268.2,0.3,0.9,295.4,0.19,8.0,11.1,"08:29:52",1
"23/04/09","08:40",0.0,9.5,89.5,1016.4,218.0,0.5,1.3,164.0,0.21,7.9,11.0,"08:32:20",1
"23/04/09","08:50",0.0,9.8,85.5,1016.6,259.4,0.6,1.3,274.4,0.24,7.5,11.2,"08:43:02",1
"23/04/09","09:00",0.0,10.4,80.9,1016.6,235.7,0.8,2.4,241.3,0.27,7.3,11.2,"08:56:34",1
"23/04/09","09:10",0.0,11.7,76.5,1017.1,254.3,0.6,1.4,341.8,0.31,7.8,11.2,"09:03:04",1
"23/04/09","09:20",0.0,12.1,72.4,1016.6,202.9,0.7,1.8,177.2,0.35,7.3,11.4,"09:14:40",1
"23/04/09","09:30",0.0,12.3,68.7,1016.6,228.0,1.1,2.5,225.7,0.38,6.8,11.3,"09:25:28",1
"23/04/09","09:40",0.0,13.0,66.8,1016.4,277.1,0.7,1.8,301.1,0.36,7.0,11.2,"09:33:12",1
"23/04/09","09:50",0.0,13.2,64.9,1016.6,239.0,1.1,2.5,198.0,0.39,6.8,11.4,"09:42:00",1
"23/04/09","10:00",0.0,12.6,64.7,1016.6,303.2,2.1,4.1,319.3,0.40,6.2,11.5,"09:58:56",1
"23/04/09","10:10",0.0,12.5,63.4,1016.4,304.4,2.1,4.3,332.0,0.40,5.8,11.5,"10:08:56",1
"23/04/09","10:20",0.0,12.3,63.3,1016.4,299.4,2.1,3.5,319.1,0.32,5.6,11.6,"10:14:56",1
"23/04/09","10:30",0.0,12.8,63.6,1016.6,298.4,2.2,4.2,348.1,0.44,6.1,11.7,"10:22:40",1
"23/04/09","10:40",0.0,13.4,61.6,1016.4,275.3,1.6,3.4,334.0,0.41,6.2,11.7,"10:30:16",1
"23/04/09","10:50",0.0,13.8,60.8,1016.1,325.7,2.0,5.1,319.1,0.51,6.4,11.7,"10:41:28",1
"23/04/09","11:00",0.0,13.8,57.2,1015.9,291.1,2.1,5.0,324.3,0.54,5.5,11.7,"10:58:40",1
"23/04/09","11:10",0.0,13.6,56.9,1015.9,259.3,2.2,4.5,237.1,0.42,5.3,11.7,"11:09:28",1
"23/04/09","11:20",0.0,13.8,56.2,1015.6,265.4,2.2,5.1,316.4,0.51,5.3,12.0,"11:14:48",1
"23/04/09","11:30",0.0,14.7,55.9,1015.2,290.6,1.8,3.4,239.6,0.49,6.0,12.1,"11:24:16",1
"23/04/09","11:40",0.0,14.6,54.1,1015.4,301.2,2.3,5.8,290.4,0.55,5.5,12.0,"11:36:24",1
"23/04/09","11:50",0.0,15.2,53.3,1014.9,287.4,1.6,4.5,347.9,0.56,5.8,12.1,"11:43:12",1
"23/04/09","12:00",0.0,15.5,54.4,1014.5,269.8,2.1,4.3,309.8,0.57,6.4,12.1,"11:53:44",1
"23/04/09","12:10",0.0,15.6,50.5,1014.7,317.4,1.8,6.0,236.7,0.62,5.4,12.2,"12:03:04",1
"23/04/09","12:20",0.0,15.3,49.3,1014.7,292.6,1.6,5.8,335.2,0.34,4.8,12.3,"12:17:06",1
"23/04/09","12:30",0.0,15.9,50.0,1014.2,274.5,1.5,3.7,243.6,0.50,5.5,12.4,"12:23:52",1
"23/04/09","12:40",0.0,15.8,47.0,1013.8,306.2,2.7,4.7,322.1,0.60,4.6,12.6,"12:34:56",1
"23/04/09","12:50",0.0,16.5,49.0,1013.5,292.4,2.5,4.9,300.3,0.64,5.8,12.7,"12:45:44",1
"23/04/09","13:00",0.0,16.9,44.7,1013.3,257.2,1.6,4.3,300.3,0.61,4.8,12.8,"12:55:04",1
"23/04/09","13:10",0.0,16.2,44.4,1013.5,315.5,3.0,5.2,334.6,0.57,4.1,12.7,"13:07:52",1
"23/04/09","13:20",0.0,17.4,45.5,1013.3,32.1,1.1,2.5,40.0,0.61,5.6,12.7,"13:10:16",1
"23/04/09","13:30",0.0,17.5,39.6,1013.3,224.0,1.5,3.2,110.3,0.58,3.7,13.0,"13:22:48",1
"23/04/09","13:40",0.0,17.8,39.3,1013.0,344.1,2.0,7.7,336.7,0.60,3.8,13.0,"13:39:12",1
"23/04/09","13:50",0.0,17.8,41.4,1012.8,339.6,3.1,5.9,345.1,0.59,4.6,13.2,"13:42:16",1
"23/04/09","14:00",0.0,17.7,39.3,1012.6,342.0,3.2,6.8,345.5,0.58,3.7,13.3,"13:56:00",1
"23/04/09","14:10",0.0,18.0,36.0,1012.6,344.7,2.6,6.3,320.1,0.57,2.8,13.4,"14:01:04",1
"23/04/09","14:20",0.0,18.0,35.3,1012.3,316.3,2.8,7.2,337.6,0.55,2.5,13.3,"14:19:52",1
"23/04/09","14:30",0.0,18.0,36.0,1012.6,327.8,3.2,6.2,323.6,0.54,2.8,13.6,"14:20:48",1
"23/04/09","14:40",0.0,18.0,34.4,1012.3,341.3,3.7,7.1,330.1,0.53,2.1,13.7,"14:38:24",1
"23/04/09","14:50",0.0,18.1,34.0,1012.3,335.6,3.5,7.0,323.9,0.52,2.0,13.5,"14:45:12",1
"23/04/09","15:00",0.0,18.2,36.7,1012.1,329.4,3.9,7.2,352.5,0.50,3.2,13.6,"14:53:52",1
"23/04/09","15:10",0.0,18.4,34.7,1012.1,329.9,2.5,4.8,337.0,0.47,2.6,13.9,"15:08:56",1
"23/04/09","15:20",0.0,19.1,34.0,1011.9,345.2,2.1,5.1,0.2,0.46,2.9,13.8,"15:15:04",1
"23/04/09","15:30",0.0,19.1,33.8,1012.1,351.3,2.3,4.9,354.7,0.44,2.8,14.0,"15:26:00",1
"23/04/09","15:40",0.0,19.0,34.5,1011.4,324.5,2.3,5.2,345.0,0.41,3.0,13.9,"15:38:00",1
"23/04/09","15:50",0.0,19.0,35.4,1011.4,339.4,2.7,5.5,336.1,0.39,3.4,13.8,"15:42:08",1
"23/04/09","16:00",0.0,19.5,33.8,1011.2,334.3,1.6,3.7,303.3,0.36,3.2,13.9,"15:58:40",1
"23/04/09","16:10",0.0,19.0,35.4,1011.2,340.3,3.1,6.0,344.9,0.34,3.4,14.1,"16:06:32",1
"23/04/09","16:20",0.0,19.2,31.7,1011.4,314.8,1.7,3.9,343.7,0.31,2.0,13.9,"16:10:16",1
"23/04/09","16:30",0.0,18.9,33.4,1011.4,138.1,1.2,3.1,165.6,0.29,2.5,14.1,"16:23:12",1
"23/04/09","16:40",0.0,19.0,34.2,1011.4,295.9,2.1,4.9,317.1,0.26,2.9,14.3,"16:37:12",1
"23/04/09","16:50",0.0,18.7,34.7,1011.4,296.5,2.6,5.2,324.1,0.23,2.9,14.3,"16:43:36",1
"23/04/09","17:00",0.0,18.7,34.2,1011.2,274.6,2.1,4.2,306.1,0.21,2.7,14.1,"16:54:24",1
"23/04/09","17:10",0.0,18.9,35.8,1011.4,298.4,2.0,4.3,351.6,0.18,3.5,14.4,"17:09:44",1
"23/04/09","17:20",0.0,18.5,35.4,1011.6,325.4,2.7,4.1,351.2,0.15,3.0,14.4,"17:14:40",1
"23/04/09","17:30",0.0,18.6,34.3,1012.1,280.0,1.6,3.4,280.8,0.13,2.6,14.4,"17:22:24",1
"23/04/09","17:40",0.0,17.7,37.4,1011.6,141.6,2.2,4.5,110.0,0.10,3.0,14.4,"17:34:48",1
"23/04/09","17:50",0.0,17.6,38.0,1011.6,141.8,1.7,4.0,105.4,0.08,3.2,14.7,"17:43:04",1
"23/04/09","18:00",0.0,17.4,36.1,1012.1,141.3,2.1,4.9,127.9,0.06,2.3,14.4,"17:55:04",1
"23/04/09","18:10",0.0,17.0,37.0,1012.1,121.7,2.2,4.2,124.5,0.04,2.3,14.6,"18:02:56",1
"23/04/09","18:20",0.0,16.7,38.5,1011.6,113.0,2.0,4.1,134.5,0.02,2.5,14.4,"18:10:40",1
"23/04/09","18:30",0.0,16.2,38.1,1011.9,119.7,2.2,4.2,122.3,0.01,2.0,14.5,"18:20:24",1
"23/04/09","18:40",0.0,15.8,38.4,1012.1,116.6,2.3,4.9,106.7,0.00,1.7,14.3,"18:33:04",1
"23/04/09","18:50",0.0,15.4,38.9,1012.6,111.8,1.6,2.7,105.2,0.00,1.5,14.2,"18:41:04",1
"23/04/09","19:00",0.0,15.3,39.7,1012.6,115.0,1.2,2.7,104.6,0.00,1.7,14.4,"18:53:20",1
"23/04/09","19:10",0.0,14.7,43.2,1012.6,338.7,1.1,1.8,336.0,0.00,2.4,14.3,"19:03:36",1
"23/04/09","19:20",0.0,13.8,49.8,1012.3,283.0,1.7,2.5,301.2,0.00,3.5,14.4,"19:10:02",1
"23/04/09","19:30",0.0,12.6,54.5,1012.8,303.1,2.2,3.1,307.0,0.00,3.7,14.3,"19:27:48",1
"23/04/09","19:40",0.0,12.0,58.5,1012.8,301.1,2.2,2.8,310.1,0.00,4.2,14.1,"19:30:56",1
"23/04/09","19:50",0.0,11.4,61.5,1013.0,306.9,2.3,2.7,316.9,0.00,4.3,14.2,"19:41:14",1
"23/04/09","20:00",0.0,11.1,64.4,1013.3,325.6,2.0,2.2,315.2,0.00,4.7,14.3,"19:51:52",1
"23/04/09","20:10",0.0,10.7,66.1,1013.0,304.3,2.2,3.3,308.2,0.00,4.7,14.3,"20:06:20",1
"23/04/09","20:20",0.0,10.4,67.3,1013.3,293.9,2.1,2.8,268.9,0.00,4.6,14.2,"20:17:46",1
"23/04/09","20:30",0.0,10.2,68.2,1013.8,289.8,2.1,2.7,309.6,0.00,4.6,14.2,"20:20:16",1
"23/04/09","20:40",0.0,10.1,68.5,1013.5,310.1,2.0,2.4,313.8,0.00,4.6,14.2,"20:31:36",1
"23/04/09","20:50",0.0,9.8,69.6,1013.5,304.8,2.2,2.9,312.1,0.00,4.6,14.2,"20:47:20",1
"23/04/09","21:00",0.0,9.6,70.1,1013.5,301.9,2.0,2.7,276.2,0.00,4.5,14.1,"20:57:36",1
"23/04/09","21:10",0.0,9.5,70.5,1013.8,300.0,2.2,2.7,306.7,0.00,4.4,14.0,"21:02:56",1
"23/04/09","21:20",0.0,9.5,70.7,1014.0,302.8,2.7,4.0,309.4,0.00,4.5,13.7,"21:18:24",1
"23/04/09","21:30",0.0,9.2,71.1,1014.0,301.3,2.5,3.5,311.1,0.00,4.3,13.8,"21:23:04",1
"23/04/09","21:40",0.0,9.1,71.6,1014.0,295.3,2.7,3.9,326.6,0.00,4.3,13.7,"21:37:52",1
"23/04/09","21:50",0.0,9.1,71.8,1014.0,294.3,2.5,3.6,316.7,0.00,4.3,13.8,"21:43:04",1
"23/04/09","22:00",0.0,8.9,72.3,1014.2,303.0,2.8,3.6,312.7,0.00,4.2,13.7,"21:53:28",1
"23/04/09","22:10",0.0,8.7,72.7,1014.5,285.6,2.1,2.6,294.8,0.00,4.1,13.6,"22:02:24",1
"23/04/09","22:20",0.0,8.7,73.0,1014.2,301.8,2.7,3.6,329.9,0.00,4.2,13.6,"22:18:40",1
"23/04/09","22:30",0.0,8.3,73.4,1014.2,307.1,2.1,3.2,304.8,0.00,3.9,13.6,"22:21:28",1
"23/04/09","22:40",0.0,8.1,74.1,1014.2,305.0,2.0,3.1,320.9,0.00,3.8,13.5,"22:38:16",1
"23/04/09","22:50",0.0,7.5,75.4,1014.2,326.5,2.3,2.9,322.6,0.00,3.5,13.5,"22:42:56",1
"23/04/09","23:00",0.0,7.4,76.4,1014.5,310.4,2.2,2.9,324.1,0.00,3.6,13.4,"22:51:52",1
"23/04/09","23:10",0.0,7.4,77.1,1014.5,286.1,2.1,2.6,270.8,0.00,3.7,13.3,"23:05:44",1
"23/04/09","23:20",0.0,7.4,77.2,1014.7,309.6,2.0,3.5,319.0,0.00,3.7,13.4,"23:10:16",1
"23/04/09","23:30",0.0,7.2,77.8,1014.5,323.1,2.1,3.1,318.9,0.00,3.6,13.2,"23:29:12",1
"23/04/09","23:40",0.0,6.6,78.8,1014.5,317.2,2.5,2.9,312.7,0.00,3.2,13.2,"23:30:56",1
"23/04/09","23:50",0.0,6.8,79.6,1014.2,281.6,2.2,2.8,268.4,0.00,3.6,13.2,"23:46:48",1
"23/04/09","24:00",0.0,7.0,79.7,1014.5,303.0,2.3,3.2,309.7,0.00,3.8,13.1,"23:50:24",1
